Regional Weather Roundup
Issued by NWS Little Rock, AR

Home | Current Version | Previous Version | Text Only | Print | Product List | Glossary On
Versions: 1 2 3 4 5 6 7 8 9 10 11 12 13 14 15 16 17 18 19 20 21 22 23 24 25 26 27
000
ASUS44 KLZK 271305
RWRLZK

WEATHER ROUNDUP FOR ARKANSAS
NATIONAL WEATHER SERVICE LITTLE ROCK AR
800 AM CDT SAT AUG 27 2016

NOTE: "FAIR" INDICATES FEW OR NO CLOUDS BELOW 12,000 FEET WITH NO
SIGNIFICANT WEATHER AND/OR OBSTRUCTIONS TO VISIBILITY.

ARZ001-003-010-029-271400-
NORTHWEST ARKANSAS

CITY           SKY/WX    TMP DP  RH WIND       PRES   REMARKS
FAYETTEVILLE   SUNNY     68  68 100 CALM      30.10R
FORT SMITH     CLOUDY    75  71  87 NE6       30.06R
HARRISON       PTSUNNY   71  71 100 CALM      30.11R FOG
BENTONVILLE    CLOUDY    72  68  88 CALM      30.11R
ROGERS         CLOUDY    73  71  93 SE3       30.11R
SILOAM SPGS    MOSUNNY   72  63  73 CALM      30.11R
HIGHFILL       MOSUNNY   73  72  96 CALM      30.10R
SPRINGDALE     SUNNY     72  72 100 CALM      30.12R
$$

ARZ004-005-016-271400-
NORTH CENTRAL ARKANSAS

CITY           SKY/WX    TMP DP  RH WIND       PRES   REMARKS
BATESVILLE     CLOUDY    72  70  94 CALM      30.09R VSB 1/4
FLIPPIN        CLOUDY    72  66  83 CALM      30.07R VSB<1/4
MTN HOME       MOSUNNY   72  71  97 CALM      30.09R
$$

ARZ040-041-271400-
WEST CENTRAL ARKANSAS

CITY           SKY/WX    TMP DP  RH WIND       PRES   REMARKS
MENA           CLOUDY    72  72 100 CALM      30.08S VSB<1/4
MOUNT IDA      MOSUNNY   73  72  96 SE3       30.05R
$$

ARZ009-017-025-026-028-271400-
NORTHEAST ARKANSAS

CITY           SKY/WX    TMP DP  RH WIND       PRES   REMARKS
CORNING          N/A     73  73 100 E3        30.09R
JONESBORO      CLOUDY    74  72  93 CALM      30.08R
NEWPORT        CLOUDY    73  73 100 SE3       30.08S FOG
WALNUT RIDGE   MOSUNNY   73  70  88 E3        30.08R
BLYTHEVILLE    CLOUDY    72  72 100 CALM      30.09R
$$

ARZ022-023-033-042-044-271400-
CENTRAL ARKANSAS

CITY           SKY/WX    TMP DP  RH WIND       PRES   REMARKS
LITTLE ROCK    PTSUNNY   76  73  91 E5        30.07R FOG
N LITTLE ROCK    N/A     74  73  97 CALM      30.05R
JACKSONVILLE   PTSUNNY   75  75 100 CALM      30.07R
SEARCY         MOSUNNY   76  74  93 E3        30.09R
HOT SPRINGS    MOSUNNY   75  72  90 E3        30.07R
RUSSELLVILLE   CLOUDY    76  73  91 NE3       30.06R
$$

ARZ036-271400-
EAST ARKANSAS

CITY           SKY/WX    TMP DP  RH WIND       PRES   REMARKS
WEST MEMPHIS   MOSUNNY   72  71  97 N3        30.06S FOG
$$

ARZ050-053-066-070-073-271400-
SOUTHWEST ARKANSAS

CITY           SKY/WX    TMP DP  RH WIND       PRES   REMARKS
ARKADELPHIA    FAIR      74  73  97 NE5       30.06R
TEXARKANA      MOSUNNY   75  73  93 E3        30.04R
EL DORADO      SUNNY     74  73  97 CALM      30.05R
DE QUEEN       SUNNY     75  75 100 CALM      30.03R
$$

ARZ056-057-069-271400-
SOUTHEAST ARKANSAS

CITY           SKY/WX    TMP DP  RH WIND       PRES   REMARKS
PINE BLUFF     CLOUDY    74  73  97 N6        30.07R
STUTTGART      PTSUNNY   73  72  94 N5        30.07R
MONTICELLO     CLOUDY    78  73  84 NE3       30.05R HAZE

$$






USA.gov is the U.S. government's official web portal to all federal, state and local government web resources and services.